Location: Izdebno
(52.6670°N, 16.2170°E)
Time: 02:41:41
(UTC+02:00)

Transit 2A - Pass Details

Date: 26 February 2024
Orbit: 596 x 956 km, 66.7° (Epoch: 21 April)

Event Time Altitude Azimuth Distance (km) Brightness Sun altitude
Rises 21:57:20 0° 270° (W) 2,840 9.5 -38.6°
Enters shadow 21:59:21 - 282° (WNW) 2,157 8.9 -38.8°
Reaches altitude 10° 22:00:03 10° 288° (WNW) 1,948 - -38.9°
Maximum altitude 22:03:18 20° 337° (NNW) 1,430 - -39.2°
Drops below altitude 10° 22:06:39 10° 25° (NNE) 2,020 - -39.6°
Sets 22:09:33 0° 42° (NE) 2,981 - -39.9°
